STARLINK-36066 (66592 NORAD) Tracking and Keplerian Element Data

This shows tracking and keplerian element data for the satellite.

Feedback or suggestion? Click here.




ElementValue
Catalog66592
NameSTARLINK-36066
Epoch Orbit523
Epoch Day353.14662311
Epoch Year2025
RAAN155.7395
Inclination42.9987
Eccentricity0.0001295
Argument of Perigee272.062
Mean Anonmoly88.0088
Mean Motion15.40718174
Decay Rate0.00028934
L11 66592U 25270E 25353.14662311 .00028934 00000+0 69687-3 0 9990
L22 66592 42.9987 155.7395 0001295 272.0620 88.0088 15.40718174 5230



Live tracking and technical data element details for STARLINK-36066 (NORAD 66592). STARLINK-36066 can be tracked NOW for your location showing map with azimuth and elevation plus other details from your city location.







IsCatalogInMostPopularTable: catalog: 66592, numindb: 21
Update: records affected: 1



GetName: 66592 STARLINK-36066

Hit Count: updated at: Tue, 21 Apr 2026 20:22:30 GMT